This demonstration page uses our WeatherBlox Daily Observations layout. Learn more.

Left ArrowRight Arrow

39.08367, -84.50855

Hourly Observations for August 8, 2015

Temp ( °F °C ) Dew Point ( °F °C ) Humidity (%) Winds ( mph kmh ) Pressure ( in mb ) Visibility ( mi km ) Precip ( " mm )
12:53 am 00:53 Mostly Cloudy 67 19.4 65 18.3 93 93 N N/A 29.91 1013 10 16 N/A
1:53 am 01:53 Clear 65 18.3 64 17.8 97 97 N N/A 29.91 1013 10 16 N/A
2:53 am 02:53 Clear 64 17.8 63 17.2 96 96 ENE 3 6 29.89 1012 10 16 N/A
3:53 am 03:53 Clear with Mist and Fog 63 17.2 62 16.7 97 97 ENE 3 6 29.89 1012 6 10 N/A
4:53 am 04:53 Clear 62 16.7 62 16.7 100 100 N N/A 29.90 1012 7 11 N/A
5:53 am 05:53 Clear 61 16.1 61 16.1 100 100 N N/A 29.93 1014 8 13 N/A
6:36 am 06:36 Mostly Clear 63 17 63 17 100 100 N 3 6 29.94 1014 9 14 N/A
6:53 am 06:53 Sunny with Mist and Fog 62 16.7 62 16.7 100 100 N N/A 29.95 1014 6 10 N/A
7:53 am 07:53 Sunny 64 17.8 63 17.2 96 96 N N/A 29.95 1014 7 11 N/A
8:53 am 08:53 Sunny 68 20 64 17.8 87 87 NE 3 6 29.96 1015 10 16 N/A
9:53 am 09:53 Sunny 73 22.8 65 18.3 76 76 N N/A 29.96 1015 10 16 N/A
10:53 am 10:53 Sunny 76 24.4 65 18.3 69 69 N N/A 29.97 1015 10 16 N/A
11:53 am 11:53 Sunny 79 26.1 63 17.2 58 58 N N/A 29.98 1015 10 16 N/A
12:53 pm 12:53 Sunny 79 26.1 64 17.8 60 60 N N/A 29.98 1015 10 16 N/A
1:53 pm 13:53 Sunny 82 27.8 63 17.2 53 53 N N/A 29.97 1015 10 16 N/A
2:53 pm 14:53 Sunny 83 28.3 63 17.2 51 51 VRB 3 6 29.96 1015 10 16 N/A
3:53 pm 15:53 Mostly Sunny 83 28.3 62 16.7 49 49 VRB 6 9 29.96 1015 10 16 N/A
4:53 pm 16:53 Mostly Sunny 81 27.2 62 16.7 53 53 VRB 6 9 29.95 1014 10 16 N/A
5:53 pm 17:53 Sunny 82 27.8 63 17.2 53 53 VRB 3 6 29.95 1014 10 16 N/A
6:53 pm 18:53 Sunny 82 27.8 66 18.9 58 58 W 6 9 29.95 1014 10 16 N/A
7:53 pm 19:53 Sunny 81 27.2 65 18.3 58 58 VRB 3 6 29.95 1014 10 16 N/A
8:53 pm 20:53 Clear 73 22.8 68 20 84 84 N N/A 29.95 1014 10 16 N/A
9:53 pm 21:53 Clear 71 21.7 68 20 90 90 VRB 3 6 29.96 1015 10 16 N/A
10:53 pm 22:53 Clear 67 19.4 66 18.9 97 97 N N/A 29.97 1015 10 16 N/A
11:53 pm 23:53 Clear 68 20 67 19.4 96 96 N N/A 29.98 1015 10 16 N/A

Powered by AerisWeather